Springfield, IL

3:30 AM CDT on October 18, 2017 (GMT -0500)
Capital

Weather History for KSPI - October, 2011

Change the Weather History Date:

Tuesday, October 18, 2011

  Actual Average Record
Temperature  
Mean Temperature 50 °F 54 °F  
Max Temperature 54 °F 66 °F 86 °F (1953)
Min Temperature 45 °F 43 °F 24 °F (1948)
Degree Days  
Heating Degree Days 15 11  
Month to date heating degree days 101 158  
Since 1 July heating degree days 217 239  
Cooling Degree Days 0 0  
Month to date cooling degree days 24 19  
Year to date cooling degree days 1445 1118  
Moisture  
Dew Point 40 °F    
Average Humidity 76    
Maximum Humidity 92    
Minimum Humidity 59    
Precipitation  
Precipitation T in 0.11 in 2.14 in (1938)
Month to date precipitation 0.88 1.79  
Year to date precipitation 24.39 30.34  
Snow  
Snow 0.00 in 0.00 in T in (1896)
Month to date snowfall 0.0 0.0  
Since 1 July snowfall 0.0 0.0  
Since 1 September snowfall 0.0 0.0  
Snow Depth 0.00 in    
Sea Level Pressure  
Sea Level Pressure 29.86 in    
Wind  
Wind Speed 7 mph (NW)    
Max Wind Speed 15 mph    
Max Gust Speed 23 mph    
Visibility 10 miles    
Events      
T = Trace of Precipitation, MM = Missing Value Source: NWS Daily Summary

Daily Weather History Graph

Daily Weather History Graph

Search for Another Location

Airport or City:

Trip Planner

Search our weather history database for the weather conditions in past years. The results will help you decide how hot, cold, wet, or windy it might be!

Date:

Astronomy

Oct. 18, 2011 Rise Set
Actual Time 7:11 AM CDT 6:15 PM CDT
Civil Twilight 6:44 AM CDT 6:42 PM CDT
Nautical Twilight 6:13 AM CDT 7:13 PM CDT
Astronomical Twilight 5:41 AM CDT 7:45 PM CDT
Moon 10:56 PM CDT 1:02 PM CDT
Length of Visible Light 11h 57m
Length of Day
11h 03m
Waning Gibbous, 64% of the Moon is Illuminated
Oct 18
Waning Gibbous
Oct 19
Last Quarter
Oct 26
New
Nov 2
First Quarter
Nov 10
Full

Hourly Weather History & Observations

Time (CDT) Temp. Windchill Dew Point Humidity Pressure Visibility Wind Dir Wind Speed Gust Speed Precip Events Conditions
12:52 AM 45.0 °F 42.6 °F 42.1 °F 90% 29.91 in 10.0 mi WNW 4.6 mph - 0.00 in   Overcast
1:52 AM 45.0 °F 42.6 °F 43.0 °F 93% 29.89 in 10.0 mi West 4.6 mph - N/A   Overcast
2:52 AM 46.0 °F 44.8 °F 43.0 °F 89% 29.87 in 10.0 mi West 3.5 mph - N/A   Overcast
3:52 AM 46.0 °F 43.1 °F 43.0 °F 89% 29.89 in 10.0 mi West 5.8 mph - N/A   Overcast
4:52 AM 46.0 °F 44.8 °F 43.0 °F 89% 29.87 in 10.0 mi West 3.5 mph - N/A   Overcast
5:52 AM 46.0 °F 44.8 °F 43.0 °F 89% 29.86 in 10.0 mi WNW 3.5 mph - N/A   Overcast
6:52 AM 46.0 °F 43.9 °F 43.0 °F 89% 29.86 in 10.0 mi NW 4.6 mph - N/A   Overcast
7:52 AM 46.0 °F 43.9 °F 43.0 °F 89% 29.87 in 10.0 mi NW 4.6 mph - N/A   Overcast
8:52 AM 46.0 °F 43.9 °F 43.0 °F 89% 29.87 in 10.0 mi WNW 4.6 mph - N/A   Overcast
9:52 AM 46.4 °F 44.3 °F 42.8 °F 87% 29.86 in 10.0 mi NW 4.6 mph - N/A   Overcast
10:52 AM 48.9 °F - 41.0 °F 74% 29.87 in 10.0 mi NNW 5.8 mph - N/A   Mostly Cloudy
11:52 AM 48.9 °F - 41.0 °F 74% 29.86 in 10.0 mi NNW 6.9 mph - N/A   Mostly Cloudy
12:52 PM 51.1 °F - 41.0 °F 68% 29.85 in 10.0 mi North 5.8 mph - N/A   Mostly Cloudy
1:52 PM 52.0 °F - 41.0 °F 66% 29.84 in 10.0 mi NW 8.1 mph - N/A   Mostly Cloudy
2:52 PM 51.1 °F - 39.0 °F 63% 29.84 in 10.0 mi NNW 10.4 mph - N/A   Mostly Cloudy
3:52 PM 51.1 °F - 37.9 °F 61% 29.84 in 10.0 mi North 6.9 mph - N/A   Overcast
4:52 PM 52.0 °F - 37.9 °F 59% 29.84 in 10.0 mi Calm Calm - N/A   Partly Cloudy
5:52 PM 51.1 °F - 37.0 °F 59% 29.84 in 10.0 mi North 5.8 mph - N/A   Partly Cloudy
6:52 PM 50.0 °F - 37.0 °F 61% 29.84 in 10.0 mi NNW 4.6 mph - N/A   Scattered Clouds
7:52 PM 48.9 °F - 36.0 °F 61% 29.84 in 10.0 mi NNW 6.9 mph - N/A   Overcast
8:52 PM 48.9 °F - 37.0 °F 64% 29.84 in 10.0 mi NW 9.2 mph - N/A   Mostly Cloudy
9:52 PM 48.9 °F - 37.0 °F 64% 29.85 in 10.0 mi NNW 13.8 mph - N/A   Mostly Cloudy
10:52 PM 48.2 °F - 37.4 °F 66% 29.84 in 10.0 mi NNW 11.5 mph - N/A   Overcast
11:52 PM 46.9 °F - 37.0 °F 68% 29.84 in 10.0 mi North 11.5 mph - N/A   Overcast